Time,TemperatureF,DewpointF,PressureIn,WindDirection,WindDirectionDegrees,WindSpeedMPH,WindSpeedGustMPH,Humidity,HourlyPrecipIn,Conditions,Clouds,dailyrainin,SolarRadiationWatts/m^2,SoftwareType,DateUTC
2013-01-26 00:00:00,62.2,58.9,30.16,SE,125,0.0,0.0,89,0.00,,SCT050,0.00,0.00,VWS V14.00,2013-01-26 05:00:00,
2013-01-26 00:01:00,62.2,58.9,30.16,SE,125,0.0,0.0,89,0.00,,SCT050,0.00,0.00,VWS V14.00,2013-01-26 05:01:00,
2013-01-26 00:06:00,62.1,58.8,30.16,SE,125,0.0,0.0,89,0.00,,SCT050,0.00,0.00,VWS V14.00,2013-01-26 05:06:00,
2013-01-26 00:11:00,62.0,58.7,30.16,SE,125,0.0,0.0,89,0.00,,SCT050,0.00,0.00,VWS V14.00,2013-01-26 05:11:00,
2013-01-26 00:16:00,61.9,58.6,30.17,SE,125,0.0,0.0,89,0.00,,SCT050,0.00,0.00,VWS V14.00,2013-01-26 05:16:00,
2013-01-26 00:21:00,61.8,58.8,30.17,SE,125,0.0,0.0,90,0.00,,SCT050,0.00,0.00,VWS V14.00,2013-01-26 05:21:00,
2013-01-26 00:26:00,61.7,58.4,30.17,SE,125,0.0,0.0,89,0.00,,SCT050,0.00,0.00,VWS V14.00,2013-01-26 05:26:00,
2013-01-26 00:31:00,61.6,58.6,30.17,SE,125,0.0,0.0,90,0.00,,SCT050,0.00,0.00,VWS V14.00,2013-01-26 05:31:00,
2013-01-26 00:36:00,61.5,58.5,30.17,SE,125,0.0,0.0,90,0.00,,SCT050,0.00,0.00,VWS V14.00,2013-01-26 05:36:00,
2013-01-26 00:41:00,61.4,58.5,30.16,SE,125,0.0,0.0,90,0.00,,SCT050,0.00,0.00,VWS V14.00,2013-01-26 05:41:00,
2013-01-26 00:46:00,61.5,58.5,30.16,SE,125,0.0,0.0,90,0.00,,SCT050,0.00,0.00,VWS V14.00,2013-01-26 05:46:00,
2013-01-26 00:51:00,61.5,58.5,30.16,SE,125,0.0,0.0,90,0.00,,SCT050,0.00,0.00,VWS V14.00,2013-01-26 05:51:00,
2013-01-26 00:56:00,61.5,58.5,30.16,SE,125,0.0,0.0,90,0.00,,SCT050,0.00,0.00,VWS V14.00,2013-01-26 05:56:00,
2013-01-26 01:01:00,61.4,58.5,30.16,SE,125,0.0,0.0,90,0.00,,SCT050,0.00,0.00,VWS V14.00,2013-01-26 06:01:00,
2013-01-26 01:06:00,61.4,58.5,30.16,SE,125,0.0,0.0,90,0.00,,SCT050,0.00,0.00,VWS V14.00,2013-01-26 06:06:00,
2013-01-26 01:11:00,61.4,58.8,30.16,SE,125,0.0,0.0,91,0.00,,SCT050,0.00,0.00,VWS V14.00,2013-01-26 06:11:00,
2013-01-26 01:16:00,61.4,58.8,30.17,SE,125,0.0,0.0,91,0.00,,SCT050,0.00,0.00,VWS V14.00,2013-01-26 06:16:00,
2013-01-26 01:21:00,61.4,58.8,30.16,SE,125,0.0,0.0,91,0.00,,SCT050,0.00,0.00,VWS V14.00,2013-01-26 06:21:00,
2013-01-26 01:26:00,61.4,58.8,30.16,SE,125,0.0,0.0,91,0.00,,SCT050,0.00,0.00,VWS V14.00,2013-01-26 06:26:00,
2013-01-26 01:31:00,61.3,58.7,30.16,SE,125,0.0,0.0,91,0.00,,SCT050,0.00,0.00,VWS V14.00,2013-01-26 06:31:00,
2013-01-26 01:36:00,61.5,58.8,30.16,SE,125,0.0,0.0,91,0.00,,SCT050,0.00,0.00,VWS V14.00,2013-01-26 06:36:00,
2013-01-26 01:41:00,61.5,58.8,30.16,SE,125,0.0,0.0,91,0.00,,SCT050,0.00,0.00,VWS V14.00,2013-01-26 06:41:00,
2013-01-26 01:46:00,61.5,58.8,30.16,SE,125,0.0,0.0,91,0.00,,SCT050,0.00,0.00,VWS V14.00,2013-01-26 06:46:00,
2013-01-26 01:51:00,61.4,58.8,30.16,SE,125,0.0,0.0,91,0.00,,SCT050,0.00,0.00,VWS V14.00,2013-01-26 06:51:00,
2013-01-26 01:56:00,61.3,58.7,30.16,SE,125,0.0,0.0,91,0.00,,SCT050,0.00,0.00,VWS V14.00,2013-01-26 06:56:00,
2013-01-26 02:01:00,61.1,58.5,30.16,SE,125,0.0,0.0,91,0.00,,SCT050,0.00,0.00,VWS V14.00,2013-01-26 07:01:00,
2013-01-26 02:06:00,60.8,58.2,30.15,SE,125,0.0,0.0,91,0.00,,SCT050,0.00,0.00,VWS V14.00,2013-01-26 07:06:00,
2013-01-26 02:11:00,60.8,58.2,30.15,SE,125,0.0,0.0,91,0.00,,SCT050,0.00,0.00,VWS V14.00,2013-01-26 07:11:00,
2013-01-26 02:16:00,60.6,58.0,30.15,SE,125,0.0,0.0,91,0.00,,SCT050,0.00,0.00,VWS V14.00,2013-01-26 07:16:00,
2013-01-26 02:21:00,60.6,58.0,30.15,SE,125,0.0,0.0,91,0.00,,SCT050,0.00,0.00,VWS V14.00,2013-01-26 07:21:00,
2013-01-26 02:26:00,60.2,57.6,30.15,SE,125,0.0,0.0,91,0.00,,SCT050,0.00,0.00,VWS V14.00,2013-01-26 07:26:00,
2013-01-26 02:31:00,60.0,57.4,30.15,SE,125,0.0,0.0,91,0.00,,SCT050,0.00,0.00,VWS V14.00,2013-01-26 07:31:00,
2013-01-26 02:36:00,60.1,57.5,30.15,SE,125,1.0,1.0,91,0.00,,SCT050,0.00,0.00,VWS V14.00,2013-01-26 07:36:00,
2013-01-26 02:41:00,60.2,57.6,30.15,SE,125,0.0,0.0,91,0.00,,SCT050,0.00,0.00,VWS V14.00,2013-01-26 07:41:00,
2013-01-26 02:46:00,60.2,57.6,30.15,SE,125,0.0,0.0,91,0.00,,SCT050,0.00,0.00,VWS V14.00,2013-01-26 07:46:00,
2013-01-26 02:51:00,60.0,57.4,30.15,SE,125,0.0,0.0,91,0.00,,SCT050,0.00,0.00,VWS V14.00,2013-01-26 07:51:00,
2013-01-26 02:56:00,60.1,57.5,30.15,SE,125,0.0,0.0,91,0.00,,SCT050,0.00,0.00,VWS V14.00,2013-01-26 07:56:00,
2013-01-26 03:01:00,60.1,57.5,30.15,SE,125,0.0,0.0,91,0.00,,SCT050,0.00,0.00,VWS V14.00,2013-01-26 08:01:00,
2013-01-26 03:06:00,60.1,57.5,30.15,SE,125,0.0,0.0,91,0.00,,SCT050,0.00,0.00,VWS V14.00,2013-01-26 08:06:00,
2013-01-26 03:11:00,60.1,57.5,30.15,SE,125,0.0,0.0,91,0.00,,SCT050,0.00,0.00,VWS V14.00,2013-01-26 08:11:00,
2013-01-26 03:16:00,60.0,57.4,30.15,SE,125,0.0,0.0,91,0.00,,SCT050,0.00,0.00,VWS V14.00,2013-01-26 08:16:00,
2013-01-26 03:21:00,60.0,57.4,30.15,SE,125,0.0,0.0,91,0.00,,SCT050,0.00,0.00,VWS V14.00,2013-01-26 08:21:00,
2013-01-26 03:26:00,60.0,57.4,30.15,SE,125,0.0,0.0,91,0.00,,SCT050,0.00,0.00,VWS V14.00,2013-01-26 08:26:00,
2013-01-26 03:31:00,60.0,57.4,30.15,SE,125,0.0,0.0,91,0.00,,SCT050,0.00,0.00,VWS V14.00,2013-01-26 08:31:00,
2013-01-26 03:36:00,59.8,57.2,30.15,SE,125,0.0,0.0,91,0.00,,SCT050,0.00,0.00,VWS V14.00,2013-01-26 08:36:00,
2013-01-26 03:41:00,59.8,57.2,30.15,SE,125,0.0,0.0,91,0.00,,SCT050,0.00,0.00,VWS V14.00,2013-01-26 08:41:00,
2013-01-26 03:46:00,59.9,57.6,30.15,SE,125,1.0,1.0,92,0.00,,SCT050,0.00,0.00,VWS V14.00,2013-01-26 08:46:00,
2013-01-26 03:51:00,60.0,57.7,30.15,SE,125,0.0,0.0,92,0.00,,SCT050,0.00,0.00,VWS V14.00,2013-01-26 08:51:00,
2013-01-26 03:56:00,59.9,57.6,30.15,SE,125,0.0,0.0,92,0.00,,SCT050,0.00,0.00,VWS V14.00,2013-01-26 08:56:00,
2013-01-26 04:01:00,60.0,57.7,30.15,SE,125,0.0,0.0,92,0.00,,SCT050,0.00,0.00,VWS V14.00,2013-01-26 09:01:00,
2013-01-26 04:06:00,60.1,57.8,30.15,SE,125,0.0,1.0,92,0.00,,SCT050,0.00,0.00,VWS V14.00,2013-01-26 09:06:00,
2013-01-26 04:11:00,60.2,57.9,30.15,SE,125,2.0,3.0,92,0.00,,SCT050,0.00,0.00,VWS V14.00,2013-01-26 09:11:00,
2013-01-26 04:16:00,60.2,57.9,30.15,SE,125,0.0,1.0,92,0.00,,SCT050,0.00,0.00,VWS V14.00,2013-01-26 09:16:00,
2013-01-26 04:21:00,60.2,57.9,30.15,SE,125,2.0,2.0,92,0.00,,SCT050,0.00,0.00,VWS V14.00,2013-01-26 09:21:00,
2013-01-26 04:26:00,60.2,57.9,30.15,SE,125,0.0,0.0,92,0.00,,SCT050,0.00,0.00,VWS V14.00,2013-01-26 09:26:00,
2013-01-26 04:31:00,60.2,57.9,30.15,SE,125,0.0,1.0,92,0.00,,SCT050,0.00,0.00,VWS V14.00,2013-01-26 09:31:00,
2013-01-26 04:36:00,60.2,57.9,30.15,SE,125,0.0,0.0,92,0.00,,SCT050,0.00,0.00,VWS V14.00,2013-01-26 09:36:00,
2013-01-26 04:41:00,60.1,57.8,30.15,SE,125,0.0,0.0,92,0.00,,SCT050,0.00,0.00,VWS V14.00,2013-01-26 09:41:00,
2013-01-26 04:46:00,60.0,57.7,30.15,SE,125,0.0,0.0,92,0.00,,SCT050,0.00,0.00,VWS V14.00,2013-01-26 09:46:00,
2013-01-26 04:51:00,59.9,57.6,30.15,SE,125,0.0,0.0,92,0.00,,SCT050,0.00,0.00,VWS V14.00,2013-01-26 09:51:00,
2013-01-26 04:56:00,59.8,57.5,30.15,SE,125,0.0,0.0,92,0.00,,SCT050,0.00,0.00,VWS V14.00,2013-01-26 09:56:00,
2013-01-26 05:01:00,59.8,57.5,30.15,SE,125,0.0,0.0,92,0.00,,SCT050,0.00,0.00,VWS V14.00,2013-01-26 10:01:00,
2013-01-26 05:06:00,59.7,57.4,30.15,SE,125,0.0,0.0,92,0.00,,SCT050,0.00,0.00,VWS V14.00,2013-01-26 10:06:00,
2013-01-26 05:11:00,59.6,57.3,30.15,SE,125,0.0,0.0,92,0.00,,SCT050,0.00,0.00,VWS V14.00,2013-01-26 10:11:00,
2013-01-26 05:16:00,59.5,57.2,30.15,SE,125,0.0,0.0,92,0.00,,SCT050,0.00,0.00,VWS V14.00,2013-01-26 10:16:00,
2013-01-26 05:21:00,59.5,57.2,30.15,SE,125,0.0,0.0,92,0.00,,SCT050,0.00,0.00,VWS V14.00,2013-01-26 10:21:00,
2013-01-26 05:26:00,59.5,57.2,30.15,SE,125,0.0,0.0,92,0.00,,SCT050,0.00,0.00,VWS V14.00,2013-01-26 10:26:00,
2013-01-26 05:32:00,59.5,57.2,30.15,SE,125,0.0,1.0,92,0.00,,SCT050,0.00,0.00,VWS V14.00,2013-01-26 10:32:00,
2013-01-26 05:37:00,59.5,57.2,30.15,SE,125,0.0,0.0,92,0.00,,SCT050,0.00,0.00,VWS V14.00,2013-01-26 10:37:00,
2013-01-26 05:42:00,59.5,57.2,30.15,SE,125,0.0,1.0,92,0.00,,SCT050,0.00,0.00,VWS V14.00,2013-01-26 10:42:00,
2013-01-26 05:47:00,59.5,57.2,30.16,SE,125,0.0,1.0,92,0.00,,SCT050,0.00,0.00,VWS V14.00,2013-01-26 10:47:00,
2013-01-26 05:52:00,59.5,57.2,30.16,SE,125,0.0,0.0,92,0.00,,SCT050,0.00,0.00,VWS V14.00,2013-01-26 10:52:00,
2013-01-26 05:57:00,59.5,57.2,30.16,SE,125,0.0,0.0,92,0.00,,SCT050,0.00,0.00,VWS V14.00,2013-01-26 10:57:00,
2013-01-26 06:02:00,59.5,57.2,30.16,SE,125,0.0,3.0,92,0.00,,SCT050,0.00,0.00,VWS V14.00,2013-01-26 11:02:00,
2013-01-26 06:07:00,59.5,57.2,30.16,SE,125,0.0,0.0,92,0.00,,SCT050,0.00,0.00,VWS V14.00,2013-01-26 11:07:00,
2013-01-26 06:12:00,59.4,57.1,30.16,SE,125,0.0,1.0,92,0.00,,SCT050,0.00,0.00,VWS V14.00,2013-01-26 11:12:00,
2013-01-26 06:17:00,59.4,57.1,30.16,SE,125,0.0,1.0,92,0.00,,SCT050,0.00,0.00,VWS V14.00,2013-01-26 11:17:00,
2013-01-26 06:22:00,59.3,56.7,30.16,SE,125,0.0,1.0,91,0.00,,SCT050,0.00,0.00,VWS V14.00,2013-01-26 11:22:00,
2013-01-26 06:27:00,59.2,56.6,30.16,SE,125,0.0,1.0,91,0.00,,SCT050,0.00,0.00,VWS V14.00,2013-01-26 11:27:00,
2013-01-26 06:32:00,59.2,56.6,30.16,SE,125,3.0,3.0,91,0.00,,SCT050,0.00,0.00,VWS V14.00,2013-01-26 11:32:00,
2013-01-26 06:37:00,59.2,56.6,30.16,SE,125,2.0,3.0,91,0.00,,SCT050,0.00,0.00,VWS V14.00,2013-01-26 11:37:00,
2013-01-26 06:42:00,59.1,56.5,30.17,SE,125,0.0,4.0,91,0.00,,SCT050,0.00,0.00,VWS V14.00,2013-01-26 11:42:00,
2013-01-26 06:47:00,59.1,56.5,30.17,SE,125,2.0,3.0,91,0.00,,SCT050,0.00,0.00,VWS V14.00,2013-01-26 11:47:00,
2013-01-26 06:52:00,59.0,56.1,30.17,SE,125,0.0,0.0,90,0.00,,SCT050,0.00,0.00,VWS V14.00,2013-01-26 11:52:00,
2013-01-26 06:57:00,59.0,56.1,30.17,SE,125,0.0,1.0,90,0.00,,SCT050,0.00,0.00,VWS V14.00,2013-01-26 11:57:00,
2013-01-26 07:02:00,59.0,56.7,30.17,SE,125,0.0,0.0,92,0.00,,SCT050,0.00,0.00,VWS V14.00,2013-01-26 12:02:00,
2013-01-26 07:07:00,58.9,56.0,30.18,SE,125,0.0,1.0,90,0.00,,SCT050,0.00,0.00,VWS V14.00,2013-01-26 12:07:00,
2013-01-26 07:12:00,58.8,55.6,30.18,SE,125,0.0,0.0,89,0.00,,SCT050,0.00,0.00,VWS V14.00,2013-01-26 12:12:00,
2013-01-26 07:17:00,58.7,55.5,30.18,SE,125,0.0,0.0,89,0.00,,SCT050,0.00,5.00,VWS V14.00,2013-01-26 12:17:00,
2013-01-26 07:22:00,58.7,55.5,30.18,SE,125,0.0,0.0,89,0.00,,SCT050,0.00,12.00,VWS V14.00,2013-01-26 12:22:00,
2013-01-26 07:27:00,58.6,55.4,30.18,SE,125,1.0,1.0,89,0.00,,SCT050,0.00,23.00,VWS V14.00,2013-01-26 12:27:00,
2013-01-26 07:32:00,58.6,55.1,30.18,SE,125,0.0,1.0,88,0.00,,SCT050,0.00,28.00,VWS V14.00,2013-01-26 12:32:00,
2013-01-26 07:37:00,58.7,54.8,30.18,SE,125,0.0,3.0,87,0.00,,SCT050,0.00,32.00,VWS V14.00,2013-01-26 12:37:00,
2013-01-26 07:42:00,58.9,54.7,30.18,SE,125,0.0,3.0,86,0.00,,SCT050,0.00,33.00,VWS V14.00,2013-01-26 12:42:00,
2013-01-26 07:47:00,59.1,54.6,30.18,SE,125,1.0,2.0,85,0.00,,SCT050,0.00,35.00,VWS V14.00,2013-01-26 12:47:00,
2013-01-26 07:52:00,59.4,54.2,30.19,SE,125,2.0,5.0,83,0.00,,SCT050,0.00,44.00,VWS V14.00,2013-01-26 12:52:00,
2013-01-26 07:57:00,59.8,54.3,30.19,SE,125,0.0,4.0,82,0.00,,SCT050,0.00,47.00,VWS V14.00,2013-01-26 12:57:00,
2013-01-26 08:02:00,60.2,54.0,30.19,ESE,123,0.0,3.0,80,0.00,,SCT050,0.00,47.00,VWS V14.00,2013-01-26 13:02:00,
2013-01-26 08:07:00,60.5,54.0,30.19,ESE,122,1.0,2.0,79,0.00,,SCT050,0.00,51.00,VWS V14.00,2013-01-26 13:07:00,
2013-01-26 08:12:00,60.9,54.0,30.19,ESE,116,0.0,4.0,78,0.00,,SCT050,0.00,56.00,VWS V14.00,2013-01-26 13:12:00,
2013-01-26 08:17:00,61.2,53.9,30.19,ESE,105,4.0,5.0,77,0.00,,SCT050,0.00,60.00,VWS V14.00,2013-01-26 13:17:00,
2013-01-26 08:22:00,61.5,53.9,30.19,ENE,71,5.0,6.0,76,0.00,,SCT050,0.00,70.00,VWS V14.00,2013-01-26 13:22:00,
2013-01-26 08:27:00,61.8,53.8,30.20,ENE,61,5.0,5.0,75,0.00,,SCT050,0.00,79.00,VWS V14.00,2013-01-26 13:27:00,
2013-01-26 08:32:00,62.1,53.7,30.20,NE,56,3.0,6.0,74,0.00,,CLR,0.00,83.00,VWS V14.00,2013-01-26 13:32:00,
2013-01-26 08:37:00,62.5,53.7,30.20,NE,56,1.0,3.0,73,0.00,,CLR,0.00,88.00,VWS V14.00,2013-01-26 13:37:00,
2013-01-26 08:42:00,62.9,53.0,30.20,NE,43,1.0,6.0,70,0.00,,CLR,0.00,91.00,VWS V14.00,2013-01-26 13:42:00,
2013-01-26 08:47:00,63.3,53.0,30.20,NNE,31,2.0,3.0,69,0.00,,CLR,0.00,98.00,VWS V14.00,2013-01-26 13:47:00,
2013-01-26 08:52:00,63.6,52.9,30.20,NNE,25,3.0,3.0,68,0.00,,CLR,0.00,102.00,VWS V14.00,2013-01-26 13:52:00,
2013-01-26 08:57:00,64.0,52.8,30.20,NNE,26,0.0,6.0,67,0.00,,CLR,0.00,107.00,VWS V14.00,2013-01-26 13:57:00,
2013-01-26 09:02:00,64.3,53.1,30.20,NNE,23,0.0,3.0,67,0.00,,CLR,0.00,109.00,VWS V14.00,2013-01-26 14:02:00,
2013-01-26 09:07:00,64.7,53.1,30.20,NNE,21,6.0,7.0,66,0.00,,CLR,0.00,111.00,VWS V14.00,2013-01-26 14:07:00,
2013-01-26 09:12:00,65.0,53.8,30.20,NNE,19,6.0,7.0,67,0.00,,CLR,0.00,113.00,VWS V14.00,2013-01-26 14:12:00,
2013-01-26 09:17:00,65.3,53.7,30.20,NNE,21,2.0,5.0,66,0.00,,CLR,0.00,114.00,VWS V14.00,2013-01-26 14:17:00,
2013-01-26 09:22:00,65.8,55.0,30.21,NNE,20,5.0,6.0,68,0.00,,CLR,0.00,116.00,VWS V14.00,2013-01-26 14:22:00,
2013-01-26 09:28:00,66.2,55.3,30.21,NNE,12,6.0,7.0,68,0.00,,CLR,0.00,116.00,VWS V14.00,2013-01-26 14:28:00,
2013-01-26 09:33:00,66.4,55.1,30.21,NNE,17,0.0,3.0,67,0.00,,CLR,0.00,118.00,VWS V14.00,2013-01-26 14:33:00,
2013-01-26 09:38:00,66.6,54.5,30.21,NNE,15,3.0,5.0,65,0.00,,CLR,0.00,114.00,VWS V14.00,2013-01-26 14:38:00,
2013-01-26 09:43:00,66.9,54.8,30.21,NNE,15,5.0,6.0,65,0.00,,CLR,0.00,105.00,VWS V14.00,2013-01-26 14:43:00,
2013-01-26 09:48:00,67.3,54.7,30.21,NNE,13,7.0,7.0,64,0.00,,CLR,0.00,90.00,VWS V14.00,2013-01-26 14:48:00,
2013-01-26 09:53:00,67.7,55.1,30.21,NE,40,4.0,6.0,64,0.00,,CLR,0.00,88.00,VWS V14.00,2013-01-26 14:53:00,
2013-01-26 09:58:00,68.0,55.8,30.21,NE,39,3.0,5.0,65,0.00,,CLR,0.00,90.00,VWS V14.00,2013-01-26 14:58:00,
2013-01-26 10:03:00,68.3,55.7,30.21,NE,40,1.0,3.0,64,0.00,,CLR,0.00,91.00,VWS V14.00,2013-01-26 15:03:00,
2013-01-26 10:08:00,68.6,56.8,30.21,NE,42,0.0,4.0,66,0.00,,CLR,0.00,93.00,VWS V14.00,2013-01-26 15:08:00,
2013-01-26 10:13:00,69.2,57.8,30.21,NE,42,0.0,1.0,67,0.00,,CLR,0.00,95.00,VWS V14.00,2013-01-26 15:13:00,
2013-01-26 10:18:00,69.8,57.9,30.21,NE,38,8.0,8.0,66,0.00,,CLR,0.00,97.00,VWS V14.00,2013-01-26 15:18:00,
2013-01-26 10:23:00,70.0,58.1,30.21,NNE,31,4.0,4.0,66,0.00,,CLR,0.00,97.00,VWS V14.00,2013-01-26 15:23:00,
2013-01-26 10:28:00,70.3,58.0,30.20,NNE,22,3.0,6.0,65,0.00,,CLR,0.00,98.00,VWS V14.00,2013-01-26 15:28:00,
2013-01-26 10:33:00,70.7,58.8,30.21,North,9,7.0,8.0,66,0.00,,CLR,0.00,100.00,VWS V14.00,2013-01-26 15:33:00,
2013-01-26 10:38:00,70.9,58.6,30.21,NNE,25,4.0,7.0,65,0.00,,CLR,0.00,100.00,VWS V14.00,2013-01-26 15:38:00,
2013-01-26 10:43:00,71.3,58.9,30.21,NNE,16,4.0,8.0,65,0.00,,CLR,0.00,102.00,VWS V14.00,2013-01-26 15:43:00,
2013-01-26 10:48:00,71.5,58.7,30.21,NNE,13,4.0,7.0,64,0.00,,CLR,0.00,104.00,VWS V14.00,2013-01-26 15:48:00,
2013-01-26 10:53:00,71.6,58.8,30.21,North,10,0.0,7.0,64,0.00,,CLR,0.00,104.00,VWS V14.00,2013-01-26 15:53:00,
2013-01-26 10:58:00,71.9,59.1,30.20,North,5,2.0,6.0,64,0.00,,CLR,0.00,105.00,VWS V14.00,2013-01-26 15:58:00,
2013-01-26 11:03:00,72.0,59.2,30.20,North,5,0.0,4.0,64,0.00,,CLR,0.00,107.00,VWS V14.00,2013-01-26 16:03:00,
2013-01-26 11:08:00,72.1,58.8,30.20,North,360,4.0,6.0,63,0.00,,CLR,0.00,109.00,VWS V14.00,2013-01-26 16:08:00,
2013-01-26 11:13:00,72.2,58.9,30.20,North,360,2.0,4.0,63,0.00,,CLR,0.00,111.00,VWS V14.00,2013-01-26 16:13:00,
2013-01-26 11:18:00,72.3,59.0,30.19,NE,37,4.0,6.0,63,0.00,,CLR,0.00,111.00,VWS V14.00,2013-01-26 16:18:00,
2013-01-26 11:23:00,72.5,59.2,30.19,NE,34,3.0,4.0,63,0.00,,CLR,0.00,113.00,VWS V14.00,2013-01-26 16:23:00,
2013-01-26 11:28:00,72.9,59.1,30.19,NNE,18,7.0,7.0,62,0.00,,CLR,0.00,114.00,VWS V14.00,2013-01-26 16:28:00,
2013-01-26 11:33:00,72.8,59.0,30.19,North,5,7.0,8.0,62,0.00,,CLR,0.00,116.00,VWS V14.00,2013-01-26 16:33:00,
2013-01-26 11:38:00,72.8,58.6,30.19,North,5,6.0,11.0,61,0.00,,CLR,0.00,116.00,VWS V14.00,2013-01-26 16:38:00,
2013-01-26 11:43:00,72.8,59.0,30.19,North,5,4.0,4.0,62,0.00,,CLR,0.00,118.00,VWS V14.00,2013-01-26 16:43:00,
2013-01-26 11:48:00,73.0,58.8,30.19,North,351,5.0,6.0,61,0.00,,CLR,0.00,120.00,VWS V14.00,2013-01-26 16:48:00,
2013-01-26 11:53:00,73.0,58.8,30.18,North,360,1.0,9.0,61,0.00,,CLR,0.00,121.00,VWS V14.00,2013-01-26 16:53:00,
2013-01-26 11:58:00,73.2,59.0,30.18,North,350,2.0,7.0,61,0.00,,CLR,0.00,123.00,VWS V14.00,2013-01-26 16:58:00,
2013-01-26 12:03:00,73.4,58.7,30.18,North,5,1.0,3.0,60,0.00,,CLR,0.00,125.00,VWS V14.00,2013-01-26 17:03:00,
2013-01-26 12:08:00,73.4,59.2,30.18,NNE,27,3.0,6.0,61,0.00,,CLR,0.00,125.00,VWS V14.00,2013-01-26 17:08:00,
2013-01-26 12:13:00,73.4,58.7,30.17,NNE,20,1.0,4.0,60,0.00,,CLR,0.00,125.00,VWS V14.00,2013-01-26 17:13:00,
2013-01-26 12:18:00,73.8,58.6,30.17,North,360,6.0,8.0,59,0.00,,CLR,0.00,125.00,VWS V14.00,2013-01-26 17:18:00,
2013-01-26 12:23:00,73.8,59.1,30.17,North,355,3.0,6.0,60,0.00,,CLR,0.00,127.00,VWS V14.00,2013-01-26 17:23:00,
2013-01-26 12:28:00,73.9,58.7,30.17,North,351,2.0,5.0,59,0.00,,CLR,0.00,127.00,VWS V14.00,2013-01-26 17:28:00,
2013-01-26 12:33:00,73.9,58.7,30.17,NNE,25,4.0,8.0,59,0.00,,FEW070,0.00,125.00,VWS V14.00,2013-01-26 17:33:00,
2013-01-26 12:38:00,73.9,58.2,30.16,NNE,18,3.0,6.0,58,0.00,,FEW070,0.00,127.00,VWS V14.00,2013-01-26 17:38:00,
2013-01-26 12:43:00,73.9,58.7,30.16,NNE,17,0.0,4.0,59,0.00,,FEW070,0.00,127.00,VWS V14.00,2013-01-26 17:43:00,
2013-01-26 12:48:00,74.2,58.5,30.15,NNE,17,0.0,4.0,58,0.00,,FEW070,0.00,127.00,VWS V14.00,2013-01-26 17:48:00,
2013-01-26 12:53:00,74.1,57.9,30.15,NE,38,0.0,1.0,57,0.00,,FEW070,0.00,125.00,VWS V14.00,2013-01-26 17:53:00,
2013-01-26 12:58:00,74.3,59.1,30.15,NE,38,0.0,0.0,59,0.00,,FEW070,0.00,125.00,VWS V14.00,2013-01-26 17:58:00,
2013-01-26 13:03:00,74.5,58.3,30.15,NE,36,0.0,6.0,57,0.00,,FEW070,0.00,128.00,VWS V14.00,2013-01-26 18:03:00,
2013-01-26 13:08:00,74.4,58.2,30.14,NE,36,0.0,1.0,57,0.00,,FEW070,0.00,125.00,VWS V14.00,2013-01-26 18:08:00,
2013-01-26 13:13:00,74.9,58.2,30.14,NE,48,6.0,7.0,56,0.00,,FEW070,0.00,125.00,VWS V14.00,2013-01-26 18:13:00,
2013-01-26 13:18:00,74.6,58.4,30.14,NE,47,3.0,7.0,57,0.00,,FEW070,0.00,123.00,VWS V14.00,2013-01-26 18:18:00,
2013-01-26 13:23:00,74.5,57.8,30.14,NE,44,4.0,4.0,56,0.00,,FEW070,0.00,123.00,VWS V14.00,2013-01-26 18:23:00,
2013-01-26 13:28:00,74.9,58.2,30.13,NE,38,3.0,7.0,56,0.00,,FEW070,0.00,121.00,VWS V14.00,2013-01-26 18:28:00,
2013-01-26 13:33:00,74.8,58.6,30.13,ENE,60,4.0,4.0,57,0.00,,FEW070,0.00,121.00,VWS V14.00,2013-01-26 18:33:00,
2013-01-26 13:38:00,74.8,58.1,30.13,NE,53,3.0,5.0,56,0.00,,FEW070,0.00,114.00,VWS V14.00,2013-01-26 18:38:00,
2013-01-26 13:43:00,75.1,58.3,30.13,NE,47,5.0,6.0,56,0.00,,FEW070,0.00,120.00,VWS V14.00,2013-01-26 18:43:00,
2013-01-26 13:48:00,75.5,57.7,30.13,NNE,30,3.0,6.0,54,0.00,,FEW070,0.00,123.00,VWS V14.00,2013-01-26 18:48:00,
2013-01-26 13:54:00,75.5,57.7,30.12,NNE,29,1.0,4.0,54,0.00,,FEW070,0.00,120.00,VWS V14.00,2013-01-26 18:54:00,
2013-01-26 13:59:00,75.3,57.5,30.12,NNE,33,0.0,0.0,54,0.00,,FEW070,0.00,44.00,VWS V14.00,2013-01-26 18:59:00,
2013-01-26 14:04:00,75.1,57.3,30.13,NE,35,1.0,5.0,54,0.00,,FEW070,0.00,72.00,VWS V14.00,2013-01-26 19:04:00,
2013-01-26 14:09:00,75.2,57.4,30.12,NE,36,2.0,2.0,54,0.00,,FEW070,0.00,42.00,VWS V14.00,2013-01-26 19:09:00,
2013-01-26 14:14:00,75.2,57.4,30.12,NE,36,2.0,3.0,54,0.00,,FEW070,0.00,46.00,VWS V14.00,2013-01-26 19:14:00,
2013-01-26 14:19:00,75.1,58.8,30.13,ENE,61,3.0,5.0,57,0.00,,FEW070,0.00,98.00,VWS V14.00,2013-01-26 19:19:00,
2013-01-26 14:24:00,75.0,59.2,30.12,SE,138,9.0,10.0,58,0.00,,FEW070,0.00,49.00,VWS V14.00,2013-01-26 19:24:00,
2013-01-26 14:29:00,75.0,59.2,30.12,SE,138,2.0,3.0,58,0.00,,FEW070,0.00,58.00,VWS V14.00,2013-01-26 19:29:00,
2013-01-26 14:34:00,75.1,59.8,30.12,SE,128,4.0,10.0,59,0.00,,FEW070,0.00,62.00,VWS V14.00,2013-01-26 19:34:00,
2013-01-26 14:39:00,74.7,59.9,30.12,ESE,117,1.0,5.0,60,0.00,,FEW070,0.00,60.00,VWS V14.00,2013-01-26 19:39:00,
2013-01-26 14:44:00,74.6,59.8,30.12,SSE,159,5.0,6.0,60,0.00,,FEW070,0.00,54.00,VWS V14.00,2013-01-26 19:44:00,
2013-01-26 14:49:00,74.6,59.8,30.12,SSE,157,5.0,10.0,60,0.00,,FEW070,0.00,60.00,VWS V14.00,2013-01-26 19:49:00,
2013-01-26 14:54:00,74.5,60.2,30.12,SSE,150,3.0,7.0,61,0.00,,FEW070,0.00,54.00,VWS V14.00,2013-01-26 19:54:00,
2013-01-26 14:59:00,74.4,60.1,30.12,SE,136,8.0,10.0,61,0.00,,FEW070,0.00,70.00,VWS V14.00,2013-01-26 19:59:00,
2013-01-26 15:04:00,74.6,60.3,30.12,SE,137,2.0,7.0,61,0.00,,FEW070,0.00,104.00,VWS V14.00,2013-01-26 20:04:00,
2013-01-26 15:09:00,75.1,60.3,30.12,SE,140,6.0,6.0,60,0.00,,FEW070,0.00,104.00,VWS V14.00,2013-01-26 20:09:00,
2013-01-26 15:14:00,75.4,60.1,30.12,SE,140,1.0,4.0,59,0.00,,FEW070,0.00,79.00,VWS V14.00,2013-01-26 20:14:00,
2013-01-26 15:19:00,75.6,60.3,30.12,SE,135,6.0,10.0,59,0.00,,FEW070,0.00,62.00,VWS V14.00,2013-01-26 20:19:00,
2013-01-26 15:24:00,75.3,60.5,30.12,SSE,152,5.0,11.0,60,0.00,,FEW070,0.00,84.00,VWS V14.00,2013-01-26 20:24:00,
2013-01-26 15:29:00,75.2,60.4,30.12,SE,142,3.0,6.0,60,0.00,,FEW070,0.00,91.00,VWS V14.00,2013-01-26 20:29:00,
2013-01-26 15:34:00,75.1,60.3,30.12,SSE,148,4.0,4.0,60,0.00,,FEW070,0.00,88.00,VWS V14.00,2013-01-26 20:34:00,
2013-01-26 15:39:00,75.1,60.3,30.12,SE,146,5.0,9.0,60,0.00,,FEW070,0.00,84.00,VWS V14.00,2013-01-26 20:39:00,
2013-01-26 15:44:00,75.1,60.8,30.11,SE,140,7.0,8.0,61,0.00,,FEW070,0.00,81.00,VWS V14.00,2013-01-26 20:44:00,
2013-01-26 15:49:00,74.9,60.1,30.12,SE,124,12.0,12.0,60,0.00,,FEW070,0.00,74.00,VWS V14.00,2013-01-26 20:49:00,
2013-01-26 15:54:00,74.7,60.4,30.12,SE,145,5.0,11.0,61,0.00,,FEW070,0.00,74.00,VWS V14.00,2013-01-26 20:54:00,
2013-01-26 15:59:00,74.6,60.3,30.12,ESE,114,10.0,13.0,61,0.00,,FEW070,0.00,69.00,VWS V14.00,2013-01-26 20:59:00,
2013-01-26 16:04:00,74.2,60.4,30.12,SE,138,4.0,4.0,62,0.00,,FEW070,0.00,32.00,VWS V14.00,2013-01-26 21:04:00,
2013-01-26 16:09:00,74.2,59.9,30.12,SSE,151,5.0,10.0,61,0.00,,FEW070,0.00,67.00,VWS V14.00,2013-01-26 21:09:00,
2013-01-26 16:14:00,74.2,60.4,30.12,SE,125,5.0,11.0,62,0.00,,FEW070,0.00,65.00,VWS V14.00,2013-01-26 21:14:00,
2013-01-26 16:19:00,74.0,60.6,30.12,SE,129,2.0,6.0,63,0.00,,FEW070,0.00,62.00,VWS V14.00,2013-01-26 21:19:00,
2013-01-26 16:24:00,73.8,60.9,30.12,ESE,113,0.0,5.0,64,0.00,,FEW070,0.00,60.00,VWS V14.00,2013-01-26 21:24:00,
2013-01-26 16:29:00,73.8,60.4,30.12,ESE,116,5.0,7.0,63,0.00,,FEW070,0.00,56.00,VWS V14.00,2013-01-26 21:29:00,
2013-01-26 16:34:00,73.9,60.5,30.12,SE,142,2.0,9.0,63,0.00,,FEW080,0.00,54.00,VWS V14.00,2013-01-26 21:34:00,
2013-01-26 16:39:00,73.9,60.5,30.12,SSE,157,1.0,5.0,63,0.00,,FEW080,0.00,54.00,VWS V14.00,2013-01-26 21:39:00,
2013-01-26 16:44:00,73.9,61.0,30.12,SSE,150,2.0,3.0,64,0.00,,FEW080,0.00,49.00,VWS V14.00,2013-01-26 21:44:00,
2013-01-26 16:49:00,73.6,60.7,30.12,SE,130,3.0,4.0,64,0.00,,FEW080,0.00,46.00,VWS V14.00,2013-01-26 21:49:00,
2013-01-26 16:54:00,73.4,60.5,30.12,SE,130,1.0,7.0,64,0.00,,FEW080,0.00,42.00,VWS V14.00,2013-01-26 21:54:00,
2013-01-26 16:59:00,73.3,60.4,30.12,SE,136,2.0,6.0,64,0.00,,FEW080,0.00,39.00,VWS V14.00,2013-01-26 21:59:00,
2013-01-26 17:04:00,73.3,60.4,30.12,SE,132,3.0,5.0,64,0.00,,FEW080,0.00,37.00,VWS V14.00,2013-01-26 22:04:00,
2013-01-26 17:09:00,73.2,60.7,30.12,SE,134,5.0,5.0,65,0.00,,FEW080,0.00,33.00,VWS V14.00,2013-01-26 22:09:00,
2013-01-26 17:14:00,73.1,60.7,30.13,SE,138,1.0,4.0,65,0.00,,FEW080,0.00,39.00,VWS V14.00,2013-01-26 22:14:00,
2013-01-26 17:19:00,73.0,61.0,30.13,SE,138,1.0,3.0,66,0.00,,FEW080,0.00,35.00,VWS V14.00,2013-01-26 22:19:00,
2013-01-26 17:24:00,72.9,60.9,30.13,SE,137,5.0,5.0,66,0.00,,FEW080,0.00,32.00,VWS V14.00,2013-01-26 22:24:00,
2013-01-26 17:29:00,72.8,60.8,30.13,SE,138,5.0,5.0,66,0.00,,FEW080,0.00,26.00,VWS V14.00,2013-01-26 22:29:00,
2013-01-26 17:34:00,72.6,60.6,30.13,SE,140,2.0,7.0,66,0.00,,SKC,0.00,21.00,VWS V14.00,2013-01-26 22:34:00,
2013-01-26 17:39:00,72.4,60.8,30.13,SE,140,2.0,5.0,67,0.00,,SKC,0.00,14.00,VWS V14.00,2013-01-26 22:39:00,
2013-01-26 17:44:00,72.2,61.1,30.13,SE,140,0.0,1.0,68,0.00,,SKC,0.00,7.00,VWS V14.00,2013-01-26 22:44:00,
2013-01-26 17:49:00,72.0,60.9,30.13,SE,140,3.0,4.0,68,0.00,,SKC,0.00,5.00,VWS V14.00,2013-01-26 22:49:00,
2013-01-26 17:54:00,71.9,60.8,30.13,SE,136,3.0,7.0,68,0.00,,SKC,0.00,0.00,VWS V14.00,2013-01-26 22:54:00,
2013-01-26 17:59:00,71.7,61.0,30.14,SE,136,0.0,1.0,69,0.00,,SKC,0.00,0.00,VWS V14.00,2013-01-26 22:59:00,
2013-01-26 18:04:00,71.6,60.9,30.14,SE,136,0.0,3.0,69,0.00,,SKC,0.00,0.00,VWS V14.00,2013-01-26 23:04:00,
2013-01-26 18:09:00,71.4,60.7,30.14,SE,136,0.0,1.0,69,0.00,,SKC,0.00,0.00,VWS V14.00,2013-01-26 23:09:00,
2013-01-26 18:14:00,71.2,60.9,30.14,SE,136,0.0,1.0,70,0.00,,SKC,0.00,0.00,VWS V14.00,2013-01-26 23:14:00,
2013-01-26 18:19:00,71.1,60.8,30.14,SE,136,0.0,0.0,70,0.00,,SKC,0.00,0.00,VWS V14.00,2013-01-26 23:19:00,
2013-01-26 18:24:00,70.9,60.6,30.14,SE,136,0.0,1.0,70,0.00,,SKC,0.00,0.00,VWS V14.00,2013-01-26 23:24:00,
2013-01-26 18:29:00,70.8,60.9,30.14,SE,136,0.0,0.0,71,0.00,,SKC,0.00,0.00,VWS V14.00,2013-01-26 23:29:00,
2013-01-26 18:35:00,70.6,60.8,30.14,SE,136,0.0,0.0,71,0.00,,SKC,0.00,0.00,VWS V14.00,2013-01-26 23:35:00,
2013-01-26 18:40:00,70.5,61.0,30.14,SE,136,0.0,1.0,72,0.00,,SKC,0.00,0.00,VWS V14.00,2013-01-26 23:40:00,
2013-01-26 18:45:00,70.3,60.9,30.14,SE,136,0.0,1.0,72,0.00,,SKC,0.00,0.00,VWS V14.00,2013-01-26 23:45:00,
2013-01-26 18:50:00,70.2,60.8,30.14,SE,136,0.0,0.0,72,0.00,,SKC,0.00,0.00,VWS V14.00,2013-01-26 23:50:00,
2013-01-26 18:55:00,70.1,60.7,30.14,SE,136,0.0,0.0,72,0.00,,SKC,0.00,0.00,VWS V14.00,2013-01-26 23:55:00,
2013-01-26 19:00:00,69.9,60.9,30.14,SE,136,1.0,1.0,73,0.00,,SKC,0.00,0.00,VWS V14.00,2013-01-27 00:00:00,
2013-01-26 19:05:00,69.8,60.8,30.14,SE,136,0.0,0.0,73,0.00,,SKC,0.00,0.00,VWS V14.00,2013-01-27 00:05:00,
2013-01-26 19:10:00,69.7,61.0,30.14,SE,136,0.0,0.0,74,0.00,,SKC,0.00,0.00,VWS V14.00,2013-01-27 00:10:00,
2013-01-26 19:15:00,69.6,61.0,30.14,SE,136,0.0,0.0,74,0.00,,SKC,0.00,0.00,VWS V14.00,2013-01-27 00:15:00,
2013-01-26 19:20:00,69.4,60.8,30.14,SE,136,0.0,0.0,74,0.00,,SKC,0.00,0.00,VWS V14.00,2013-01-27 00:20:00,
2013-01-26 19:25:00,69.4,61.1,30.14,SE,136,0.0,0.0,75,0.00,,SKC,0.00,0.00,VWS V14.00,2013-01-27 00:25:00,
2013-01-26 19:30:00,69.2,61.0,30.15,SE,136,0.0,0.0,75,0.00,,SKC,0.00,0.00,VWS V14.00,2013-01-27 00:30:00,
2013-01-26 19:35:00,69.1,60.8,30.15,SE,136,0.0,0.0,75,0.00,,SKC,0.00,0.00,VWS V14.00,2013-01-27 00:35:00,
2013-01-26 19:40:00,69.0,61.1,30.15,SE,136,0.0,0.0,76,0.00,,SKC,0.00,0.00,VWS V14.00,2013-01-27 00:40:00,
2013-01-26 19:45:00,68.9,61.0,30.15,SE,136,0.0,0.0,76,0.00,,SKC,0.00,0.00,VWS V14.00,2013-01-27 00:45:00,
2013-01-26 19:50:00,68.8,60.9,30.15,SE,137,0.0,0.0,76,0.00,,SKC,0.00,0.00,VWS V14.00,2013-01-27 00:50:00,
2013-01-26 19:55:00,68.8,61.3,30.15,SE,136,0.0,0.0,77,0.00,,SKC,0.00,0.00,VWS V14.00,2013-01-27 00:55:00,
2013-01-26 20:00:00,68.6,61.1,30.15,SE,136,0.0,0.0,77,0.00,,SKC,0.00,0.00,VWS V14.00,2013-01-27 01:00:00,
2013-01-26 20:05:00,68.4,61.3,30.15,SE,136,0.0,0.0,78,0.00,,SKC,0.00,0.00,VWS V14.00,2013-01-27 01:05:00,
2013-01-26 20:10:00,68.1,60.6,30.15,SE,136,0.0,1.0,77,0.00,,SKC,0.00,0.00,VWS V14.00,2013-01-27 01:10:00,
2013-01-26 20:15:00,67.9,60.8,30.15,SE,136,0.0,0.0,78,0.00,,SKC,0.00,0.00,VWS V14.00,2013-01-27 01:15:00,
2013-01-26 20:20:00,67.8,60.7,30.15,SE,136,0.0,0.0,78,0.00,,SKC,0.00,0.00,VWS V14.00,2013-01-27 01:20:00,
2013-01-26 20:25:00,67.8,61.4,30.16,SE,136,0.0,0.0,80,0.00,,SKC,0.00,0.00,VWS V14.00,2013-01-27 01:25:00,
2013-01-26 20:30:00,67.7,61.3,30.15,SE,136,0.0,0.0,80,0.00,,SKC,0.00,0.00,VWS V14.00,2013-01-27 01:30:00,
2013-01-26 20:35:00,67.6,61.6,30.16,SE,136,0.0,0.0,81,0.00,,SKC,0.00,0.00,VWS V14.00,2013-01-27 01:35:00,
2013-01-26 20:40:00,67.4,61.4,30.16,SE,136,0.0,0.0,81,0.00,,SKC,0.00,0.00,VWS V14.00,2013-01-27 01:40:00,
2013-01-26 20:45:00,67.2,61.5,30.15,SE,136,0.0,0.0,82,0.00,,SKC,0.00,0.00,VWS V14.00,2013-01-27 01:45:00,
2013-01-26 20:50:00,66.8,61.1,30.15,SE,136,0.0,0.0,82,0.00,,SKC,0.00,0.00,VWS V14.00,2013-01-27 01:50:00,
2013-01-26 20:55:00,66.5,61.2,30.16,SE,136,0.0,0.0,83,0.00,,SKC,0.00,0.00,VWS V14.00,2013-01-27 01:55:00,
2013-01-26 21:00:00,66.3,61.0,30.16,SE,136,0.0,0.0,83,0.00,,SKC,0.00,0.00,VWS V14.00,2013-01-27 02:00:00,
2013-01-26 21:05:00,66.1,60.8,30.16,SE,136,0.0,0.0,83,0.00,,SKC,0.00,0.00,VWS V14.00,2013-01-27 02:05:00,
2013-01-26 21:11:00,66.0,61.0,30.16,SE,136,0.0,0.0,84,0.00,,SKC,0.00,0.00,VWS V14.00,2013-01-27 02:11:00,
2013-01-26 21:16:00,65.9,60.9,30.16,SE,136,0.0,0.0,84,0.00,,SKC,0.00,0.00,VWS V14.00,2013-01-27 02:16:00,
2013-01-26 21:21:00,65.7,61.1,30.16,SE,136,0.0,0.0,85,0.00,,SKC,0.00,0.00,VWS V14.00,2013-01-27 02:21:00,
2013-01-26 21:26:00,65.4,60.8,30.16,SE,136,0.0,0.0,85,0.00,,SKC,0.00,0.00,VWS V14.00,2013-01-27 02:26:00,
2013-01-26 21:31:00,65.3,60.7,30.16,SE,136,0.0,0.0,85,0.00,,SKC,0.00,0.00,VWS V14.00,2013-01-27 02:31:00,
2013-01-26 21:36:00,65.1,60.8,30.16,SE,136,0.0,0.0,86,0.00,,SKC,0.00,0.00,VWS V14.00,2013-01-27 02:36:00,
2013-01-26 21:41:00,64.8,60.5,30.16,SE,136,0.0,0.0,86,0.00,,SKC,0.00,0.00,VWS V14.00,2013-01-27 02:41:00,
2013-01-26 21:46:00,64.5,60.2,30.16,SE,136,0.0,0.0,86,0.00,,SKC,0.00,0.00,VWS V14.00,2013-01-27 02:46:00,
2013-01-26 21:51:00,64.4,60.1,30.16,SE,136,0.0,0.0,86,0.00,,SKC,0.00,0.00,VWS V14.00,2013-01-27 02:51:00,
2013-01-26 21:56:00,64.2,60.3,30.16,SE,136,0.0,0.0,87,0.00,,SKC,0.00,0.00,VWS V14.00,2013-01-27 02:56:00,
2013-01-26 22:01:00,64.1,60.2,30.17,SE,136,0.0,0.0,87,0.00,,SKC,0.00,0.00,VWS V14.00,2013-01-27 03:01:00,
2013-01-26 22:06:00,64.1,60.2,30.17,SE,136,0.0,0.0,87,0.00,,SKC,0.00,0.00,VWS V14.00,2013-01-27 03:06:00,
2013-01-26 22:11:00,64.2,60.6,30.17,SE,136,0.0,0.0,88,0.00,,SKC,0.00,0.00,VWS V14.00,2013-01-27 03:11:00,
2013-01-26 22:16:00,64.0,60.1,30.17,SE,136,0.0,1.0,87,0.00,,SKC,0.00,0.00,VWS V14.00,2013-01-27 03:16:00,
2013-01-26 22:21:00,63.9,60.3,30.17,SE,136,0.0,0.0,88,0.00,,SKC,0.00,0.00,VWS V14.00,2013-01-27 03:21:00,
2013-01-26 22:26:00,63.8,60.2,30.17,SE,136,0.0,0.0,88,0.00,,SKC,0.00,0.00,VWS V14.00,2013-01-27 03:26:00,
2013-01-26 22:31:00,63.8,60.2,30.17,SE,136,0.0,0.0,88,0.00,,SKC,0.00,0.00,VWS V14.00,2013-01-27 03:31:00,
2013-01-26 22:36:00,63.6,60.0,30.17,SE,136,0.0,0.0,88,0.00,,SKC,0.00,0.00,VWS V14.00,2013-01-27 03:36:00,
2013-01-26 22:41:00,63.7,60.4,30.17,SE,136,0.0,0.0,89,0.00,,SKC,0.00,0.00,VWS V14.00,2013-01-27 03:41:00,
2013-01-26 22:46:00,63.7,60.4,30.17,SE,137,0.0,0.0,89,0.00,,SKC,0.00,0.00,VWS V14.00,2013-01-27 03:46:00,
2013-01-26 22:51:00,63.7,60.4,30.17,SE,136,0.0,0.0,89,0.00,,SKC,0.00,0.00,VWS V14.00,2013-01-27 03:51:00,
2013-01-26 22:56:00,63.6,60.3,30.17,SE,136,0.0,0.0,89,0.00,,SKC,0.00,0.00,VWS V14.00,2013-01-27 03:56:00,
2013-01-26 23:01:00,63.4,60.1,30.17,SE,136,0.0,0.0,89,0.00,,SKC,0.00,0.00,VWS V14.00,2013-01-27 04:01:00,
2013-01-26 23:06:00,63.3,60.0,30.17,SE,136,0.0,0.0,89,0.00,,SKC,0.00,0.00,VWS V14.00,2013-01-27 04:06:00,
2013-01-26 23:11:00,63.3,60.0,30.17,SE,136,0.0,0.0,89,0.00,,SKC,0.00,0.00,VWS V14.00,2013-01-27 04:11:00,
2013-01-26 23:16:00,63.2,60.2,30.17,SE,136,0.0,0.0,90,0.00,,SKC,0.00,0.00,VWS V14.00,2013-01-27 04:16:00,
2013-01-26 23:21:00,63.1,59.8,30.17,SE,136,0.0,0.0,89,0.00,,SKC,0.00,0.00,VWS V14.00,2013-01-27 04:21:00,
2013-01-26 23:26:00,63.0,60.0,30.17,SE,137,0.0,0.0,90,0.00,,SKC,0.00,0.00,VWS V14.00,2013-01-27 04:26:00,
2013-01-26 23:31:00,63.0,60.0,30.17,SE,136,0.0,0.0,90,0.00,,SKC,0.00,0.00,VWS V14.00,2013-01-27 04:31:00,
2013-01-26 23:36:00,62.9,59.9,30.16,SE,136,0.0,0.0,90,0.00,,SKC,0.00,0.00,VWS V14.00,2013-01-27 04:36:00,
2013-01-26 23:41:00,62.9,59.9,30.16,SE,136,0.0,0.0,90,0.00,,SKC,0.00,0.00,VWS V14.00,2013-01-27 04:41:00,
2013-01-26 23:46:00,62.8,59.8,30.16,SE,136,0.0,0.0,90,0.00,,SKC,0.00,0.00,VWS V14.00,2013-01-27 04:46:00,
2013-01-26 23:51:00,62.9,59.9,30.16,SE,137,0.0,0.0,90,0.00,,SKC,0.00,0.00,VWS V14.00,2013-01-27 04:51:00,
2013-01-26 23:56:00,62.8,59.8,30.16,SE,136,0.0,0.0,90,0.00,,SKC,0.00,0.00,VWS V14.00,2013-01-27 04:56:00,